Шемаха

Azerbaijan     40˚37′58″N   48˚39′00″E
temp.,
°C
wind,
m/s
gust,
m/s
humid.,
%
clouds,
%
prec.,
mm/h
press.,
hPa
HPBL,
m
2 december, wed
wed201:00−1˚wnw128244 0.0 102521
04:00−1˚nnw237422 0.0 102522
07:00−1˚nnw12640 0.0 102621
10:00+2˚ene11660 0.0 1026123
13:00+4˚s11692 0.0 1026382
16:00+4˚se11754 0.0 1025236
19:00n228940 0.0 102724
22:00n338433 0.0 102832
3 december, thu
thu301:00n227783 0.0 102823
04:00n227459 0.0 102922
07:00−1˚n12750 0.0 102921
10:00+2˚w11729 0.0 1030166
13:00+4˚sw337730 0.0 1030592
16:00+3˚ssw228563 0.1 1029384
19:00+2˚ssw1196100 0.1 1030163
22:00+1˚sw1296100 0.1 1030165
4 december, fri
fri401:00+1˚ssw229899 0.1 1030156
04:00+1˚wsw249599 0.1 1029298
07:00wsw129589 0.0 1030200
10:00+1˚wsw238394 0.0 1030317
13:00+3˚sw358487 0.0 1029496
16:00+2˚ssw239193 0.0 1028348
19:00+2˚ssw1197100 0.2 1028130
22:00+1˚wnw1197100 1.0 102892
5 december, sat
sat501:00+1˚wnw119799 0.8 102880
04:00+1˚wsw1298100 4.0 102799
07:00+1˚ese1198100 3.1 1027113
10:00+1˚se1298100 5.5 1027131
13:00+1˚se0198100 4.4 1026140
16:00+1˚e0199100 8.4 102693
19:00+1˚ese1199100 2.8 102776
22:00+1˚se1299100 4.0 102782
6 december, sun
sun601:00e1298100 1.9 1027101
04:00−1˚ene2298100 4.1 1026105
07:00−2˚nne2297100 1.6 1027101
10:00−1˚ne2395100 2.8 1028230
13:00e129099 0.4 1028324
16:00−1˚e129299 0.7 1028252
19:00−3˚nne229198 0.2 1029106
22:00−4˚nne129297 0.4 103025